Location: *
(43.4667°N, 11.6833°E)
Time: 02:26:05
(UTC+00:00)

Cosmos 2237 Rocket - Pass Details

Date: 19 July 2019
Orbit: 835 x 850 km, 71.0° (Epoch: 20 August)

Event Time Altitude Azimuth Distance (km) Brightness Sun altitude
Exits shadow 22:34:34 49° 229° (SW) 1,072 2.5 -24.9°
Maximum altitude 22:36:04 72° 296° (WNW) 880 2.3 -25.0°
Drops below altitude 10° 22:41:42 10° 21° (NNE) 2,456 5.4 -25.2°
Sets 22:44:10 0° 24° (NNE) 3,395 6.2 -25.3°
